Home > Weather > Milan > Past weeks

Flag for Italy Past Weather in Milan, Italy — Yesterday and Last 2 Weeks

Now
75 °F

Clear.


Feels Like: 77 °F
Forecast: 69 / 87 °F
Wind: 1 mph from East

Location: Milan / Linate

Current Time: Jul 29, 2016 at 12:33:33 AM

Latest Report: Jul 28, 2016 at 11:50 PM


Visibility: 10 mi

Pressure: 29.95 "Hg

Humidity: 69%

Dew Point: 64 °F

Location of MilanLocation

Past Weather in Milan — Graph

°F

Milan Temperature Yesterday

Maximum temperature yesterday: 88 °F (at 4:50 PM)
Minimum temperature yesterday: 66 °F (at 12:50 AM)
Average temperature yesterday: 76 °F

High & Low Weather Summary for the Past Weeks

 TemperatureHumidityPressure
High93 °F (Jul 20, 6:50 PM)100% (Jul 28, 3:20 AM)30.15 "Hg (Jul 28, 3:20 AM)
Low57 °F (Jul 15, 4:20 AM)18% (Jul 16, 12:50 PM)29.80 "Hg (Jul 13, 10:20 PM)
Average77 °F55%30.00 "Hg
* Reported Jul 13 10:20 PM — Jul 28 10:50 PM, Milan, Weather by CustomWeather, © 2016

Note: Actual official high and low records may vary slightly from our data, if they occured in-between our weather recording intervals... More about our weather records

Advertising

Milan Weather History for the Previous 24 Hours

Scroll right to see more
 ConditionsComfort  
Time TempWeatherWind HumidityBarometerVisibility
10:50 PM
Thu, Jul 28
75 °FClear.2 mph69%29.95 "Hg10 mi
10:20 PM75 °FClear.2 mph69%29.95 "Hg10 mi
9:50 PM77 °FPassing clouds.3 mph65%29.95 "HgN/A
9:20 PM77 °FSunny.3 mph65%29.92 "Hg10 mi
8:50 PM79 °FPassing clouds.3 mph61%29.92 "HgN/A
8:20 PM81 °FSunny.5 mph54%29.92 "Hg10 mi
7:50 PM82 °FPassing clouds.6 mph51%29.92 "HgN/A
7:20 PM84 °FPassing clouds.6 mph45%29.92 "HgN/A
6:50 PM84 °FPassing clouds.5 mph48%29.92 "HgN/A
6:20 PM86 °FPassing clouds.6 mph40%29.92 "HgN/A
5:50 PM86 °FPassing clouds.3 mph40%29.92 "HgN/A
5:20 PM86 °FPassing clouds.5 mph38%29.92 "HgN/A
4:50 PM88 °FPassing clouds.5 mph33%29.92 "HgN/A
4:20 PM86 °FPassing clouds.6 mph33%29.92 "HgN/A
3:20 PM86 °FPassing clouds.2 mph43%29.95 "HgN/A
2:50 PM84 °FPassing clouds.5 mph45%29.95 "HgN/A
2:20 PM82 °FPassing clouds.3 mph51%29.98 "HgN/A
1:50 PM82 °FPassing clouds.6 mph55%29.98 "HgN/A
1:20 PM82 °FPassing clouds.3 mph55%29.98 "HgN/A
12:50 PM81 °FPassing clouds.5 mph62%29.98 "HgN/A
12:20 PM81 °FPassing clouds.3 mph62%29.98 "HgN/A
11:50 AM79 °FPassing clouds.6 mph61%30.01 "HgN/A
11:20 AM77 °FPassing clouds.6 mph69%30.01 "HgN/A
10:50 AM77 °FPassing clouds.3 mph65%30.01 "HgN/A
10:20 AM75 °FPassing clouds.3 mph69%29.98 "HgN/A
8:50 AM73 °FSunny.1 mph74%30.01 "Hg10 mi
8:20 AM72 °FPassing clouds.5 mph78%29.98 "HgN/A
7:50 AM70 °FClear.8 mph88%29.98 "Hg4 mi
7:20 AM68 °FFog.7 mph94%29.98 "Hg3 mi
6:50 AM66 °FFog.5 mph94%29.98 "Hg2 mi
6:20 AM66 °FFog.5 mph100%29.98 "Hg2 mi
5:50 AM66 °FFog.3 mph100%29.98 "Hg3 mi
5:20 AM66 °FPassing clouds.2 mph94%29.98 "HgN/A
4:50 AM66 °FPassing clouds.2 mph94%29.98 "HgN/A
4:20 AM66 °FPassing clouds.5 mph94%29.98 "HgN/A
3:50 AM66 °FPassing clouds.5 mph94%29.98 "HgN/A
3:20 AM66 °FPassing clouds.3 mph100%30.01 "HgN/A
2:50 AM68 °FPassing clouds.No wind94%30.01 "HgN/A
2:20 AM66 °FLight rain. Passing clouds.2 mph94%30.01 "HgN/A
1:50 AM68 °FLight rain. Passing clouds.5 mph94%30.01 "HgN/A
1:20 AM66 °FThunderstorms. Passing clouds.3 mph94%30.01 "Hg5 mi
12:50 AM66 °FThunderstorms. Passing clouds.6 mph94%30.01 "Hg5 mi
12:20 AM68 °FThunderstorms. Passing clouds.2 mph88%30.01 "Hg5 mi
Weather by CustomWeather, © 2016

See weather overviewHow to use our weather pages